P/2001 Q5 ( LINEAR-NEAT ) 2008

Japanese version
Home page
Total 5,708 html files since Dec. 4, 1995
Updated on April 21, 2007

---------------------------------------------------------------------

* Profile

* Orbital Elements

The following orbital elements are taken from MPC 54167:

Epoch 2008 Feb. 24.0 TT = JDT 2454520.5
T 2008 Feb. 20.9919 TT                                  MPC
q   2.155507             (2000.0)            P               Q
n   0.1461596      Peri.    8.2687      +0.9579188      +0.2763127
a   3.569312       Node   335.2609      -0.2728369      +0.7923616
e   0.396100       Incl.   10.7052      -0.0891720      +0.5438882
P   6.74
From 218 observations 2001 Aug. 17-Dec. 19, mean residual 0".7.

* Magnitudes Graph

        m1 = 12.5 + 5 log d + 10.0 log r

---------------------------------------------------------------------

The orbital elements are published at the MPC Ephemerides and Orbital Elements.
The magnitudes graphs are made with Comet for Windows.

---------------------------------------------------------------------

Copyright(C) 1995-2007 Seiichi Yoshida (comet@aerith.net). All rights reserved.